Regional Weather Roundup
Issued by NWS

Home | Current Version | Previous Version | Graphics & Text | Print | Product List | Glossary On
Versions: 1 2 3 4 5 6 7 8 9 10 11 12 13 14 15 16 17 18 19 20 21 22 23 24 25 26 27 28 29 30 31 32 33 34 35 36 37 38 39 40 41 42 43 44 45 46 47 48 49 50
000
ASUS43 KDTX 301410
RWRMI
MICHIGAN HOURLY REGIONAL WEATHER ROUNDUP
NATIONAL WEATHER SERVICE DETROIT/PONTIAC MI
1000 AM EDT TUE JUN 30 2015

NOTE: "FAIR" INDICATES FEW OR NO CLOUDS BELOW 12,000 FEET WITH NO
SIGNIFICANT WEATHER AND/OR OBSTRUCTION TO VISIBILITY.

MIZ047>049-052>055-059>063-066>070-074>076-081>083-301500-
SOUTHEAST LOWER MICHIGAN

CITY           SKY/WX    TMP DP  RH WIND       PRES   REMARKS
ADRIAN         MOSUNNY   67  58  72 SW6       29.83S
ALMA           CLOUDY    66  60  79 SE5       29.82F
ANN ARBOR      PTSUNNY   67  61  81 W6        29.82S
BAD AXE        CLOUDY    63  59  87 N5        29.84S
CARO           CLOUDY    63  60  88 CALM      29.82F
DETROIT CITY   CLOUDY    66  59  78 CALM      29.82S
DETROIT        LGT RAIN  66  62  87 CALM      29.82F
FLINT          CLOUDY    67  60  78 W3        29.82S
GROSSE ILE     DRIZZLE   64  63  94 CALM      29.81S
HILLSDALE      CLOUDY    65  62  92 S5        29.83F
HOWELL         CLOUDY    64  63  95 S3        29.82F FOG

CITY           SKY/WX    TMP DP  RH WIND       PRES   REMARKS
JACKSON        CLOUDY    67  58  72 SW3       29.82S
LAMBERTVILLE   MOSUNNY   69  58  68 SW6       29.83S
LANSING        CLOUDY    66  57  72 SE6       29.82S
LAPEER         CLOUDY    65  58  79 CALM      29.83S
MASON          CLOUDY    64  58  81 CALM      29.82S
MONROE         CLOUDY    67  61  79 W6        29.81F
MT. CLEMENS    CLOUDY    64  61  90 E6        29.80S
PONTIAC        CLOUDY    65  60  84 CALM      29.81S
PORT HOPE        N/A     62  60  93 E3        29.84R
PORT HURON     CLOUDY    64  61  88 CALM      29.82S
TRI CITIES     CLOUDY    69  58  67 CALM      29.82F
MIDLAND        CLOUDY    64  59  83 CALM      29.82S
TROY           CLOUDY    67  61  79 CALM      29.83S
SAGINAW HB     CLOUDY    66  59  77 S3        29.82S
$$
MIZ043>046-050>051-056>058-064>065-071>073-077>080-301500-
SOUTHWEST LOWER MICHIGAN

CITY           SKY/WX    TMP DP  RH WIND       PRES   REMARKS
BATTLE CREEK   CLOUDY    67  60  78 S7        29.82S
BENTON HARBOR  CLOUDY    67  63  87 SW6       29.80R FOG
BIG RAPIDS     CLOUDY    62  58  88 CALM      29.80S
COLDWATER      CLOUDY    64  59  85 S5        29.82S
FREMONT        RAIN      61  60  97 SE5       29.79S
HOLLAND        CLOUDY    64  61  90 S7        29.80S FOG
GRAND RAPIDS   CLOUDY    63  60  90 SE8       29.80F
IONIA          FAIR      65  60  82 SE5       29.81S
KALAMAZOO      CLOUDY    64  60  87 VRB6      29.81F
LUDINGTON      CLOUDY    64  60  88 E6        29.79S
MARSHALL       CLOUDY    65  59  82 SE3       29.82S
MOUNT PLEASANT CLOUDY    65  59  81 E3        29.81F
MUSKEGON       FOG       63  60  90 E6        29.79S VSB 1
SOUTH HAVEN    CLOUDY    64  62  92 SW3       29.79F FOG
$$
MIZ016>042-301500-
NORTHERN LOWER MICHIGAN

CITY           SKY/WX    TMP DP  RH WIND       PRES   REMARKS
ALPENA         PTSUNNY   71  56  58 CALM      29.83S
BEAVER ISLAND  DRIZZLE   60  59  97 CALM      29.82S
BELLAIRE       CLOUDY    67  58  72 CALM      29.81S
CADILLAC       LGT RAIN  62  59  91 CALM      29.81S
CHARLEVOIX     CLOUDY    66  61  82 CALM      29.84R
FRANKFORT      CLOUDY    67  58  73 CALM      29.80S
GAYLORD        CLOUDY    67  60  78 CALM      29.82F
GRAYLING       CLOUDY    64  58  83 CALM      29.83S
HARBOR SPRINGS CLOUDY    69  60  71 CALM      29.81S
HOUGHTON LAKE  CLOUDY    65  58  78 VRB3      29.83S
MANISTEE       PTSUNNY   61  57  88 E5        29.80S
OSCODA         CLOUDY    68  58  69 CALM      29.83S
PELLSTON       PTSUNNY   70  59  68 CALM      29.81S
ROGERS CITY    PTSUNNY   67  60  78 NE3       29.83S
TRAVERSE CITY  CLOUDY    64  59  83 CALM      29.80R
$$
MIZ007>008-015-301500-
EASTERN UPPER MICHIGAN

CITY           SKY/WX    TMP DP  RH WIND       PRES   REMARKS
KINROSS        CLOUDY    68  61  77 SW3       29.82S
MACKINAC ISLAN PTSUNNY   66  58  75 E3        29.81S
NEWBERRY       LGT RAIN  60  60  99 CALM      29.82S
S. S. MARIE    CLOUDY    68  59  73 CALM      29.81S
MUNISING         N/A     47  43  86 MISG      29.86R
$$
MIZ004>006-011>014-085-301500-
CENTRAL UPPER MICHIGAN

CITY           SKY/WX    TMP DP  RH WIND       PRES   REMARKS
MANISTIQUE     CLOUDY    54  52  93 NW10      29.81F
ESCANABA       CLOUDY    52  46  82 N8        29.84R
MENOMINEE      CLOUDY    59  54  82 N17       29.83R
SAWYER-GWINN   CLOUDY    48  46  93 N16       29.87R
$$
MIZ001>003-009>011-084-301500-
WESTERN UPPER MICHIGAN

CITY           SKY/WX    TMP DP  RH WIND       PRES   REMARKS
IRON MOUNTAIN  CLOUDY    56  49  77 N15       29.86S
HOUGHTON       CLOUDY    49  44  83 N13G20    29.93S
COPPER HARBOR    N/A     45  42  89 NE13      29.93S
IRONWOOD       CLOUDY    52  50  93 N8        29.93S
$$

ABBREVIATIONS USED IN REMARKS
   TC - TEMPERATURE IN CELSIUS
  WCI - WIND CHILL INDEX
   HX - HEAT INDEX
  VSB - VISIBILITY



USA.gov is the U.S. government's official web portal to all federal, state and local government web resources and services.